Afton, Prince Edward Island

3:10 PM ADT on June 23, 2017 (GMT -0300)
Afton

Weather History for 71706 - April, 2013

Change the Weather History Date:

Thursday, April 4, 2013

  Actual Average Record
Temperature  
Mean Temperature 34 °F -  
Max Temperature 41 °F 45 °F - ()
Min Temperature 26 °F 30 °F - ()
Degree Days  
Heating Degree Days 32    
Moisture  
Dew Point 15 °F    
Average Humidity 49    
Maximum Humidity 69    
Minimum Humidity 25    
Precipitation  
Precipitation 0.00 in 0.12 in - ()
Sea Level Pressure  
Sea Level Pressure 29.85 in    
Wind  
Wind Speed 11 mph ()    
Max Wind Speed 17 mph    
Max Gust Speed 29 mph    
Visibility 15.0 miles    
Events      
T = Trace of Precipitation, MM = Missing Value Source: Averaged Metar Reports

Daily Weather History Graph

Daily Weather History Graph

Search for Another Location

Airport or City:

Trip Planner

Search our weather history database for the weather conditions in past years. The results will help you decide how hot, cold, wet, or windy it might be!

Date:

Astronomy

Apr. 04, 2013 Rise Set
Actual Time 6:46 AM ADT 7:45 PM ADT
Civil Twilight 6:15 AM ADT 8:16 PM ADT
Nautical Twilight 5:38 AM ADT 8:52 PM ADT
Astronomical Twilight 5:00 AM ADT 9:31 PM ADT
Moon 3:29 AM ADT (4/4) 1:40 PM ADT (4/4)
Length of Visible Light 14h 00m
Length of Day
12h 59m
Waning Crescent, 34% of the Moon is Illuminated
Apr 4
Waning Crescent
Apr 10
New
Apr 18
First Quarter
Apr 25
Full
May 2
Last Quarter

Hourly Weather History & Observations

Time (ADT) Temp. Windchill Dew Point Humidity Pressure Visibility Wind Dir Wind Speed Gust Speed Precip Events Conditions
12:00 AM 28.4 °F 17.5 °F 15.8 °F 59% 29.71 in 15.0 mi WSW 13.8 mph 21.9 mph N/A   Mostly Cloudy
1:00 AM 28.4 °F 19.7 °F 15.8 °F 59% 29.72 in 15.0 mi WSW 9.2 mph 17.3 mph N/A   Overcast
2:00 AM 26.6 °F 16.2 °F 15.8 °F 64% 29.72 in 15.0 mi West 11.5 mph 23.0 mph N/A   Scattered Clouds
3:00 AM 27 °F - 16 °F 51% 29.73 in 15 mi WSW 12.7 mph - -   Mostly Cloudy
3:00 AM 26.6 °F 15.7 °F 15.8 °F 64% 29.73 in 15.0 mi WSW 12.7 mph - N/A   Mostly Cloudy
4:00 AM 26.6 °F 16.2 °F 15.8 °F 64% 29.74 in 15.0 mi WSW 11.5 mph 19.6 mph N/A   Mostly Cloudy
5:00 AM 26.6 °F 14.7 °F 15.8 °F 64% 29.75 in 15.0 mi WSW 15.0 mph 21.9 mph N/A   Mostly Cloudy
6:00 AM 26.6 °F 15.7 °F 15.8 °F 64% 29.77 in 15.0 mi WSW 12.7 mph 18.4 mph N/A   Mostly Cloudy
8:00 AM 26.6 °F 16.8 °F 17.6 °F 69% 29.83 in 15.0 mi West 10.4 mph 17.3 mph N/A   Mostly Cloudy
9:00 AM 28 °F - 18 °F 54% 29.83 in 15 mi West 15.0 mph - -   Mostly Cloudy
9:00 AM 28.4 °F 16.2 °F 17.6 °F 64% 29.83 in 15.0 mi West 17.3 mph 24.2 mph N/A   Mostly Cloudy
10:00 AM 30.2 °F 20.2 °F 19.4 °F 64% 29.85 in 15.0 mi West 12.7 mph 23.0 mph N/A   Mostly Cloudy
11:00 AM 32.0 °F 22.5 °F 19.4 °F 60% 29.88 in 15.0 mi West 12.7 mph 25.3 mph N/A   Mostly Cloudy
12:00 PM 33.8 °F 24.3 °F 19.4 °F 56% 29.88 in 15.0 mi West 13.8 mph 25.3 mph N/A   Partly Cloudy
2:00 PM 39.2 °F 30.2 °F 17.6 °F 42% 29.88 in 15.0 mi West 17.3 mph 28.8 mph N/A   Partly Cloudy
3:00 PM 40 °F - 17 °F 25% 29.89 in 15 mi West 13.8 mph - -   Clear
3:00 PM 41.0 °F 33.9 °F 15.8 °F 36% 29.89 in 15.0 mi West 12.7 mph 21.9 mph N/A   Partly Cloudy
4:00 PM 41.0 °F 32.8 °F 8.6 °F 26% 29.90 in 15.0 mi West 16.1 mph 28.8 mph N/A   Partly Cloudy
5:00 PM 41.0 °F 33.1 °F 8.6 °F 26% 29.90 in 15.0 mi West 15.0 mph 23.0 mph N/A   Partly Cloudy
6:00 PM 41.0 °F 35.8 °F 8.6 °F 26% 29.90 in 15.0 mi West 8.1 mph 18.4 mph N/A   Mostly Cloudy
7:00 PM 41.0 °F 34.3 °F 8.6 °F 26% 29.90 in 15.0 mi West 11.5 mph 17.3 mph N/A   Mostly Cloudy
8:00 PM 37.4 °F 32.8 °F 12.2 °F 36% 29.92 in 15.0 mi SW 5.8 mph - N/A   Mostly Cloudy
8:49 PM 35.6 °F 29.9 °F 14.0 °F 41% 29.94 in 15.0 mi SW 6.9 mph - N/A   Mostly Cloudy
9:00 PM 35 °F - 15 °F 30% 29.95 in 15 mi SW 5.8 mph - -   Mostly Cloudy
9:00 PM 35.6 °F 30.7 °F 15.8 °F 44% 29.95 in 15.0 mi SW 5.8 mph - N/A   Mostly Cloudy
10:00 PM 33.8 °F 27.7 °F 14.0 °F 44% 29.96 in 15.0 mi SW 6.9 mph - N/A   Scattered Clouds
11:00 PM 33.8 °F 27.7 °F 17.6 °F 52% 29.97 in 15.0 mi SW 6.9 mph - N/A   Partly Cloudy